Regional Weather Roundup
Issued by NWS Wilmington, NC

Home | Current Version | Previous Version | Text Only | Print | Product List | Glossary On
Versions: 1 2 3 4 5 6 7 8 9 10 11 12 13 14 15 16 17 18 19 20 21 22 23 24 25 26 27 28 29 30 31 32 33 34 35 36 37 38 39 40 41 42 43 44 45 46 47 48 49 50
645
ASUS42 KILM 070812
RWRILM
RWRILM
REGIONAL HOURLY WEATHER ROUNDUP
NATIONAL WEATHER SERVICE WILMINGTON NC
300 AM EST WED DEC 07 2016

NOTE: "FAIR" INDICATES FEW OR NO CLOUDS BELOW 12,000 FEET WITH NO
SIGNIFICANT WEATHER AND/OR OBSTRUCTIONS TO VISIBILITY.

...............WFO WILMINGTON COUNTY WARNING AREA...............

......COASTAL NC AND SC COUNTIES......

CITY           SKY/WX    TMP DP  RH WIND       PRES   REMARKS
WILMINGTON     CLOUDY    47  46  97 NW10      29.91R
N MYRTLE BEACH CLOUDY    49  47  93 NW8       29.92R
MYRTLE BEACH   CLOUDY    52  45  76 NW12      29.95R

......INLAND NC AND SC COUNTIES.......

CITY           SKY/WX    TMP DP  RH WIND       PRES   REMARKS
LUMBERTON      CLOUDY    46  44  93 NW9       29.93S
ELIZABETHTOWN  CLOUDY    46  45  96 NW5       29.92R
WHITEVILLE     CLOUDY    48  46  91 CALM      29.93R
FLORENCE       CLOUDY    48  46  93 N6        29.95R
DARLINGTON     CLOUDY    47  45  93 NW3       29.96R
KINGSTREE      CLOUDY    48  45  87 W9        29.95R
HARTSVILLE     CLOUDY    45  45 100 CALM      29.95R
BENNETTSVILLE  CLOUDY    48  46  93 W5        29.96R
CONWAY         CLOUDY    48  46  93 CALM      29.94R
GEORGETOWN     CLOUDY    50  48  93 NW8       29.94R
MARION         CLOUDY    46  45  93 NW8       29.95R

....................REST OF NORTH CAROLINA......................

.........EASTERN NC.........

CITY           SKY/WX    TMP DP  RH WIND       PRES   REMARKS
CAPE HATTERAS  CLOUDY    49  46  90 NW16G28   29.83R
JACKSONVILLE   CLOUDY    45  43  93 NW6       29.91R
MOREHEAD CITY  CLOUDY    48  45  89 NW15G24   29.86S
KENANSVILLE    CLOUDY    45  43  93 NW7       29.92R
NEW BERN       CLOUDY    46  42  86 NW9       29.89S
ELIZABETH CITY CLOUDY    47  45  93 W13       29.84R

.........CENTRAL NC.........

CITY           SKY/WX    TMP DP  RH WIND       PRES   REMARKS
RALEIGH DURHAM PTCLDY    43  41  93 CALM      29.93R
ROCKY MOUNT    CLOUDY    44  43  96 W8        29.92R
ROANOKE RAPIDS NOT AVBL
FAYETTEVILLE   CLOUDY    44  41  89 NW7       29.93R
HOFFMAN        MOCLDY    44  42  93 NW5       29.95R

.........WESTERN NC.........

CITY           SKY/WX    TMP DP  RH WIND       PRES   REMARKS
CHARLOTTE      FOG       44  42  93 W3        29.94R VSB 1
GREENSBORO     CLEAR     38  38 100 W9        29.92R WCI  31
HICKORY        NOT AVBL
BOONE          NOT AVBL
ASHEVILLE      NOT AVBL

.....................REST OF SOUTH CAROLINA.....................

.........EASTERN SC.........

CITY           SKY/WX    TMP DP  RH WIND       PRES   REMARKS
CHARLESTON     CLOUDY    54  51  90 NW12      29.93S
BEAUFORT MCAS  CLEAR     53  51  93 N3        29.95R
HILTON HEAD    CLEAR     52  52 100 CALM      29.96R

.........CENTRAL SC.........

CITY           SKY/WX    TMP DP  RH WIND       PRES   REMARKS
COLUMBIA       CLOUDY    50  47  89 CALM      29.94R
ORANGEBURG     CLOUDY    51  50  96 NW5       29.96R
SUMTER SHAW    CLOUDY    48  46  90 NW5       29.94R

.........WESTERN SC.........

CITY           SKY/WX    TMP DP  RH WIND       PRES   REMARKS
GREENVILLE     NOT AVBL
ROCK HILL      CLOUDY    45  44  97 NW7       29.94R FOG
ANDERSON       FOG       49  48  97 N3        29.94R VSB 1/2
CLEMSON        NOT AVBL
GREENWOOD      FOG       48  47  96 W5        29.95S VSB 1


...................COASTAL AND OFFSHORE REPORTS..................

................LOCAL PIERS AND NC RESERVE................


STATION/POSITION TIME  SKY/WX   TEMP    WIND        PRES    VSBY
                                AIR SEA DIR/SP/G
                 (UTC)          (F)     (DEG/KT/KT) (MB)    (MI)
JOHNY MRCER PIER 0742            49 62  300/  7/ 11 1011.3R
NC RESRV MASNBRO 0645            49     290/  3     1011.0
OCEAN CREST PIER NOT AVBL
SPRINGMAID  PIER NOT AVBL


................COASTAL AND OFFSHORE BUOYS................


STATION/POSITION TIME  SKY/WX   TEMP    WIND        PRES    VSBY
                                AIR SEA DIR/SP/G
                 (UTC)          (F)     (DEG/KT/KT) (MB)    (MI)
DIMNDSHOAL 41025 0750            57 74  300/ 25/ 31 1008.8R
WVE H/P(F/S)=  7/ 9 SWL H/P/D(F/S/D)=  3/140/ 9

CAPE LOOKOUT     0800            48     320/ 16/ 17 1010.8R
ONSLOW BAY 41036 NOT AVBL
ONSLOW BAY 41064 0708            52 70  320/ 19/ 25 1011.0R
ONSLOW BAY 41159 NOT AVBL
5SE WRITBC 41038 NOT AVBL
MASNBO INL 41110 0759               62                N/A
WVE H/P(F/S)=  3/ 9

WILM HARBR 41108 0756               63                N/A
WVE H/P(F/S)=  5/10 SWL H/P/D(F/S/D)=  2/170/11

27SE WRITB 41037 0708            56 67  290/ 16/ 23 1010.9R
FRYING PAN 41013 0800            57 74  320/ 16/ 19 1012.6
SUNST NRSH 41024 0708            52 60  320/ 16/ 19 1012.0R
CAPRS NRSH 41029 0708            54 60  320/ 14/ 17 1012.9R
EDISTO     41004 0750            59 74  320/ 14/ 17 1012.9R
WVE H/P(F/S)=  4/ 8 SWL H/P/D(F/S/D)=  2/150/ 8



..........OFFSHORE BUOYS BEYOND 100 NM OFFSHORE...........
.....IN A TRIANGLE---HAT TO BERMUDA TO BAHAMAS TO HAT.....


STATION/POSITION TIME  SKY/WX   TEMP    WIND        PRES    VSBY
                                AIR SEA DIR/SP/G
                 (UTC)          (F)     (DEG/KT/KT) (MB)    (MI)
150E HAT   41001 NOT AVBL
W BERMUDA  41048 0750            74 73  220/ 23/ 29 1009.5S
WVE H/P(F/S)=  8/ 7 SWL H/P/D(F/S/D)=  2/ 40/11

ATLANTIC S 41049 0750            73 76  220/  8/ 12 1017.7F
WVE H/P(F/S)=  5/10 SWL H/P/D(F/S/D)=  5/ 10/10

E BAHAMAS  41046 0800            77 78  170/  8/ 10 1017.5
NE BAHAMAS 41047 0800            77 78  200/ 17/ 23 1014.5
120E CANVRL41010 NOT AVBL

END




USA.gov is the U.S. government's official web portal to all federal, state and local government web resources and services.